When you browse on this site, cookies collect data to enhance your experience and personalize the content and advertising you see.
Visit our Privacy Policy to learn more. By continuing to use the site, you agree to this use of cookies and data.
EN

Hourly Weather Apollonivka

Today, 6 July, Monday

Time Temperature Precipitation Wind Pressure Humidity
00:00 +24°C° 0 mm 3 mps 744 mmHg 59%
01:00 +22°C° 0 mm 3 mps 745 mmHg 62%
02:00 +22°C° 0 mm 3 mps 745 mmHg 66%
03:00 +22°C° 0 mm 3 mps 745 mmHg 70%
04:00 +21°C° 0 mm 4 mps 745 mmHg 73%
05:00 +21°C° 0 mm 4 mps 745 mmHg 77%
06:00 +23°C° 0 mm 4 mps 745 mmHg 72%
07:00 +26°C° 0 mm 4 mps 745 mmHg 67%
08:00 +28°C° 0 mm 4 mps 745 mmHg 62%
09:00 +30°C° 0 mm 4 mps 745 mmHg 56%
10:00 +32°C° 0 mm 4 mps 745 mmHg 50%
11:00 +34°C° 0 mm 4 mps 744 mmHg 44%
12:00 +34°C° 0 mm 4 mps 744 mmHg 41%
13:00 +35°C° 0 mm 4 mps 744 mmHg 39%
14:00 +36°C° 0 mm 4 mps 744 mmHg 36%
15:00 +35°C° 0 mm 3 mps 744 mmHg 40%
16:00 +35°C° 0 mm 3 mps 743 mmHg 43%
17:00 +35°C° 0 mm 2 mps 743 mmHg 46%
18:00 +31°C° 0 mm 3 mps 743 mmHg 51%
19:00 +29°C° 0 mm 3 mps 743 mmHg 55%
20:00 +27°C° 0 mm 3 mps 743 mmHg 59%
21:00 +26°C° 0 mm 3 mps 743 mmHg 59%
22:00 +26°C° 0 mm 3 mps 742 mmHg 60%
23:00 +25°C° 0 mm 3 mps 742 mmHg 60%

Tomorrow, 7 July, Tuesday

Time Temperature Precipitation Wind Pressure Humidity
00:00 +24°C° 0 mm 3 mps 742 mmHg 60%
01:00 +24°C° 0 mm 2 mps 742 mmHg 59%
02:00 +23°C° 0 mm 2 mps 742 mmHg 59%
03:00 +23°C° 0 mm 2 mps 741 mmHg 60%
04:00 +23°C° 0 mm 2 mps 741 mmHg 60%
05:00 +23°C° 0 mm 2 mps 741 mmHg 61%
06:00 +25°C° 0 mm 2 mps 741 mmHg 56%
07:00 +27°C° 0 mm 2 mps 741 mmHg 50%
08:00 +29°C° 0 mm 1 mps 741 mmHg 45%
09:00 +31°C° 0 mm 2 mps 741 mmHg 41%
10:00 +32°C° 0 mm 2 mps 741 mmHg 38%
11:00 +34°C° 0 mm 2 mps 740 mmHg 34%
12:00 +35°C° 0 mm 2 mps 740 mmHg 33%
13:00 +35°C° 0 mm 1 mps 740 mmHg 31%
14:00 +35°C° 0 mm 1 mps 740 mmHg 30%
15:00 +35°C° 0 mm 1 mps 740 mmHg 33%
16:00 +35°C° 0 mm 1 mps 740 mmHg 36%
17:00 +35°C° 0 mm 2 mps 739 mmHg 39%
18:00 +33°C° 0.1 mm 3 mps 740 mmHg 46%
19:00 +29°C° 0.1 mm 5 mps 740 mmHg 54%
20:00 +27°C° 0.1 mm 6 mps 740 mmHg 61%
21:00 +25°C° 0.1 mm 5 mps 741 mmHg 68%
22:00 +23°C° 0.1 mm 4 mps 741 mmHg 76%
23:00 +21°C° 0.1 mm 3 mps 741 mmHg 83%

Day after tomorrow, 8 July, Wednesday

Time Temperature Precipitation Wind Pressure Humidity
00:00 +21°C° 0.1 mm 3 mps 741 mmHg 84%
01:00 +21°C° 0.1 mm 3 mps 741 mmHg 84%
02:00 +20°C° 0.1 mm 2 mps 741 mmHg 85%
03:00 +20°C° 0.2 mm 3 mps 741 mmHg 87%
04:00 +20°C° 0.2 mm 4 mps 741 mmHg 89%
05:00 +20°C° 0.2 mm 4 mps 741 mmHg 90%
06:00 +21°C° 0.1 mm 4 mps 742 mmHg 87%
07:00 +22°C° 0.1 mm 5 mps 742 mmHg 84%
08:00 +23°C° 0.1 mm 5 mps 742 mmHg 81%
09:00 +23°C° 0 mm 5 mps 742 mmHg 79%
10:00 +25°C° 0 mm 5 mps 742 mmHg 76%
11:00 +24°C° 0 mm 6 mps 743 mmHg 74%
12:00 +24°C° 0.1 mm 6 mps 743 mmHg 74%
13:00 +23°C° 0.1 mm 6 mps 743 mmHg 74%
14:00 +23°C° 0.1 mm 6 mps 743 mmHg 74%
15:00 +22°C° 0 mm 6 mps 743 mmHg 75%
16:00 +22°C° 0 mm 6 mps 743 mmHg 76%
17:00 +21°C° 0 mm 6 mps 744 mmHg 78%
18:00 +20°C° 0 mm 6 mps 744 mmHg 79%
19:00 +19°C° 0 mm 6 mps 744 mmHg 81%
20:00 +19°C° 0 mm 6 mps 745 mmHg 83%
21:00 +17°C° 0.4 mm 6 mps 745 mmHg 84%
22:00 +16°C° 0.4 mm 6 mps 745 mmHg 86%
23:00 +16°C° 0.4 mm 6 mps 745 mmHg 87%

9 July, Thursday

Time Temperature Precipitation Wind Pressure Humidity
00:00 +16°C° 0.1 mm 6 mps 745 mmHg 86%
01:00 +15°C° 0.1 mm 6 mps 745 mmHg 86%
02:00 +15°C° 0.1 mm 5 mps 745 mmHg 85%
03:00 +15°C° 0 mm 6 mps 745 mmHg 84%
04:00 +15°C° 0 mm 6 mps 746 mmHg 84%
05:00 +15°C° 0 mm 6 mps 746 mmHg 83%
06:00 +16°C° 0 mm 7 mps 746 mmHg 78%
07:00 +17°C° 0 mm 7 mps 747 mmHg 73%
08:00 +18°C° 0 mm 7 mps 747 mmHg 68%
09:00 +20°C° 0 mm 8 mps 747 mmHg 63%
10:00 +22°C° 0 mm 8 mps 748 mmHg 58%
11:00 +23°C° 0 mm 8 mps 748 mmHg 53%
12:00 +23°C° 0 mm 8 mps 748 mmHg 52%
13:00 +24°C° 0 mm 7 mps 748 mmHg 51%
14:00 +24°C° 0 mm 7 mps 748 mmHg 49%
15:00 +23°C° 0.1 mm 7 mps 748 mmHg 55%
16:00 +22°C° 0.1 mm 7 mps 748 mmHg 60%
17:00 +21°C° 0.1 mm 7 mps 748 mmHg 65%
18:00 +20°C° 0 mm 5 mps 749 mmHg 70%
19:00 +19°C° 0 mm 4 mps 749 mmHg 74%
20:00 +17°C° 0 mm 3 mps 750 mmHg 79%
21:00 +16°C° 0 mm 3 mps 750 mmHg 83%
22:00 +16°C° 0 mm 3 mps 750 mmHg 86%
23:00 +14°C° 0 mm 3 mps 751 mmHg 89%

10 July, Friday

Time Temperature Precipitation Wind Pressure Humidity
00:00 +13°C° 0 mm 3 mps 751 mmHg 91%
01:00 +13°C° 0 mm 3 mps 751 mmHg 92%
02:00 +12°C° 0 mm 3 mps 751 mmHg 93%
03:00 +13°C° 0 mm 3 mps 752 mmHg 92%
04:00 +13°C° 0 mm 3 mps 752 mmHg 91%
05:00 +14°C° 0 mm 2 mps 752 mmHg 89%
06:00 +16°C° 0 mm 3 mps 752 mmHg 79%
07:00 +18°C° 0 mm 3 mps 753 mmHg 70%
08:00 +20°C° 0 mm 3 mps 753 mmHg 60%
09:00 +21°C° 0 mm 3 mps 753 mmHg 55%
10:00 +22°C° 0 mm 3 mps 753 mmHg 49%
11:00 +24°C° 0 mm 3 mps 753 mmHg 44%
12:00 +25°C° 0 mm 3 mps 753 mmHg 43%
13:00 +25°C° 0 mm 3 mps 753 mmHg 42%
14:00 +26°C° 0 mm 3 mps 753 mmHg 41%
15:00 +25°C° 0 mm 3 mps 753 mmHg 42%
16:00 +25°C° 0 mm 3 mps 753 mmHg 43%
17:00 +25°C° 0 mm 3 mps 753 mmHg 44%
18:00 +23°C° 0 mm 2 mps 753 mmHg 50%
19:00 +20°C° 0 mm 2 mps 754 mmHg 56%
20:00 +18°C° 0 mm 2 mps 754 mmHg 62%
21:00 +17°C° 0 mm 2 mps 754 mmHg 64%
22:00 +17°C° 0 mm 2 mps 754 mmHg 66%
23:00 +16°C° 0 mm 2 mps 754 mmHg 69%

11 July, Saturday

Time Temperature Precipitation Wind Pressure Humidity
00:00 +15°C° 0 mm 2 mps 754 mmHg 70%
01:00 +15°C° 0 mm 2 mps 754 mmHg 72%
02:00 +15°C° 0 mm 2 mps 754 mmHg 74%
03:00 +15°C° 0 mm 2 mps 754 mmHg 76%
04:00 +15°C° 0 mm 2 mps 754 mmHg 78%
05:00 +14°C° 0 mm 3 mps 754 mmHg 79%
06:00 +17°C° 0 mm 3 mps 754 mmHg 73%
07:00 +20°C° 0 mm 3 mps 754 mmHg 66%
08:00 +22°C° 0 mm 3 mps 754 mmHg 59%
09:00 +24°C° 0 mm 3 mps 754 mmHg 54%
10:00 +25°C° 0 mm 4 mps 754 mmHg 48%
11:00 +26°C° 0 mm 4 mps 754 mmHg 43%
12:00 +27°C° 0 mm 3 mps 753 mmHg 41%
13:00 +27°C° 0 mm 3 mps 753 mmHg 39%
14:00 +28°C° 0 mm 3 mps 753 mmHg 38%
15:00 +28°C° 0 mm 3 mps 752 mmHg 40%
16:00 +27°C° 0 mm 3 mps 752 mmHg 42%
17:00 +27°C° 0 mm 3 mps 752 mmHg 44%
18:00 +25°C° 0 mm 3 mps 752 mmHg 49%
19:00 +22°C° 0 mm 3 mps 751 mmHg 55%
20:00 +20°C° 0 mm 3 mps 751 mmHg 60%
21:00 +19°C° 0 mm 3 mps 751 mmHg 63%
22:00 +18°C° 0 mm 3 mps 751 mmHg 66%
23:00 +18°C° 0 mm 3 mps 751 mmHg 68%
Show more